This is the latest recevied weather packets stored in our database for station/object AB4KY. If no packets are shown the sender has not sent any weather packets the latest 10 day(s).
| Time | Temp. | Humidity | Pressure | Rain* | Wind** | Luminosity | Snow |
|---|---|---|---|---|---|---|---|
| 1778194312 | 15.56° C | 40% | 1012.1 hPa | 0 mm | - | 75 W/m² | - |
| 1778194007 | 15.56° C | 42% | 1012.4 hPa | 0 mm | - | 82 W/m² | - |
| 1778193704 | 15.56° C | 44% | 1012.5 hPa | 0 mm | - | 29 W/m² | - |
| 1778193400 | 15.56° C | 41% | 1012.4 hPa | 0 mm | - | 23 W/m² | - |
| 1778193097 | 15.56° C | 46% | 1012.5 hPa | 0 mm | - | 55 W/m² | - |
| 1778192794 | 15.56° C | 45% | 1012.4 hPa | 0 mm | - | 24 W/m² | - |
| 1778192491 | 15.56° C | 40% | 1012.6 hPa | 0 mm | - | 26 W/m² | - |
| 1778192187 | 15.56° C | 42% | 1012.3 hPa | 0 mm | - | 27 W/m² | - |
| 1778191883 | 16.11° C | 39% | 1012.2 hPa | 0 mm | - | 29 W/m² | - |
| 1778191581 | 16.11° C | 46% | 1012.3 hPa | 0 mm | - | 57 W/m² | - |
| 1778191279 | 16.11° C | 42% | 1012.4 hPa | 0 mm | - | 114 W/m² | - |
| 1778190974 | 15.56° C | 41% | 1012.4 hPa | 0 mm | - | 53 W/m² | - |
| 1778190672 | 15.56° C | 41% | 1012.4 hPa | 0 mm | - | 31 W/m² | - |
| 1778190369 | 15.56° C | 40% | 1012.4 hPa | 0 mm | - | 29 W/m² | - |
| 1778190065 | 15.56° C | 43% | 1012.4 hPa | 0 mm | - | 31 W/m² | - |
| 1778189762 | 15.56° C | 41% | 1012.5 hPa | 0 mm | - | 28 W/m² | - |
| 1778189459 | 16.11° C | 41% | 1012.6 hPa | 0 mm | - | 32 W/m² | - |
| 1778189155 | 15.56° C | 39% | 1012.4 hPa | 0 mm | - | 32 W/m² | - |
| 1778188852 | 16.11° C | 38% | 1012.3 hPa | 0 mm | - | 43 W/m² | - |
| 1778188548 | 16.11° C | 42% | 1012.4 hPa | 0 mm | - | 34 W/m² | - |
| 1778188244 | 16.11° C | 43% | 1012.3 hPa | 0 mm | - | 34 W/m² | - |
| 1778187942 | 16.11° C | 39% | 1012.4 hPa | 0 mm | - | 39 W/m² | - |
| 1778187638 | 16.11° C | 40% | 1012.2 hPa | 0 mm | - | 35 W/m² | - |
| 1778187335 | 16.11° C | 40% | 1012.4 hPa | 0 mm | - | 34 W/m² | - |
| 1778187031 | 16.11° C | 41% | 1012.2 hPa | 0 mm | - | 35 W/m² | - |
* Rain latest hour (hover to see other rain measurements)
** Current wind speed in m/s (hover to see current wind gust speed)